Location: Kershaw
(34.5481°N, 80.5823°W)
Time: 17:07:50
(UTC+00:00)

Vanguard 1 Rocket - Pass Details

Date: 06 October 2022
Orbit: 650 x 4225 km, 34.3° (Epoch: 08 December)

Event Time Altitude Azimuth Distance (km) Brightness Sun altitude
Rises 06:40:21 0° 284° (WNW) 5,363 - -54.0°
Reaches altitude 10° 06:45:13 10° 273° (W) 3,735 - -53.3°
Maximum altitude 06:51:57 25° 223° (SW) 2,010 - -52.4°
Drops below altitude 10° 06:56:28 10° 168° (SSE) 2,417 - -51.7°
Sets 06:58:54 0° 153° (SSE) 3,146 - -51.4°
